Back to catalog

FLOCK 4H 25

AliveScienceSSO
NORAD 66728·PAYLOAD·🇺🇸 United States

Launched Nov 28, 2025 from Vandenberg Space Force Base

Loading…

Next Passes (next 24 hours)

TLE

FreshSource: CelesTrak SupGP

Epoch: Sep 14, 2026, 12:45 UTC

1 66728C 25276BQ  26257.53140046  .00006327  00000+0  28129-3 0  2575
2 66728  97.4118 329.9378 0001286  76.2116 109.7132 15.21579938    16

Track FLOCK 4H 25 in real time with AllMySat

Download on the App Store